Hourly Data Report for October 15, 2016

All times are specified in Local Standard Time (LST). Add 1 hour to adjust for Daylight Saving Time where and when it is observed.

CORAL HARBOUR A
NUNAVUT

64°11'36.000" N
83°21'34.000" W
62.20 m
2301002
71915
YZS

Download Data

Hourly Data (October 2016)
Hourly Data Report for October 15, 2016
Temp Definition
°C
Dew Point Temp Definition
°C
Rel Hum Definition
%
Wind Dir Definition
10's deg

Wind Spd Definition
km/h
Visibility Definition
km
Stn Press Definition
kPa
Hmdx Definition


Wind Chill Definition


Weather Definition


TIME
00:00 Legend Double Dagger -12.4 -14.7 83 32 16 24.1 100.17   -20 LegendNANA
01:00 Legend Double Dagger -12.6 -14.6 85 35 20 24.1 100.23   -21 Clear
02:00 Legend Double Dagger -13.1 -15.1 85 36 21 24.1 100.29   -22 LegendNANA
03:00 Legend Double Dagger -14.3 -16.0 87 35 21 24.1 100.33   -24 LegendNANA
04:00 Legend Double Dagger -14.8 -16.5 87 35 16 24.1 100.39   -23 Clear
05:00 Legend Double Dagger -14.6 -16.2 88 34 20 24.1 100.41   -24 LegendNANA
06:00 Legend Double Dagger -14.1 -15.7 88 35 20 24.1 100.45   -23 LegendNANA
07:00 Legend Double Dagger -14.5 -16.2 87 36 22 24.1 100.46   -24 Mainly Clear
08:00 Legend Double Dagger -14.0 -15.4 89 1 18 24.1 100.49   -22 LegendNANA
09:00 Legend Double Dagger -13.3 -15.3 85 34 13 24.1 100.53   -20 LegendNANA
10:00 Legend Double Dagger -8.2 -10.3 85 32 8 24.1 100.54   -12 Mostly Cloudy
11:00 Legend Double Dagger -9.3 -11.2 86 34 8 24.1 100.59   -14 LegendNANA
12:00 Legend Double Dagger -7.7 -10.0 84 33 7 24.1 100.61   -11 LegendNANA
13:00 Legend Double Dagger -8.2 -10.8 82 24 4 24.1 100.66   -10 Mostly Cloudy
14:00 Legend Double Dagger -7.0 -9.3 84 36 1 24.1 100.65   -8 LegendNANA
15:00 Legend Double Dagger -6.7 -8.7 86 22 6 24.1 100.68   -10 LegendNANA
16:00 Legend Double Dagger -7.0 -9.1 85 28 5 24.1 100.69   -10 Mostly Cloudy
17:00 Legend Double Dagger -7.2 -8.9 88 32 9 24.1 100.69   -12 LegendNANA
18:00 Legend Double Dagger -7.3 -9.3 86 33 11 24.1 100.72   -12 LegendNANA
19:00 Legend Double Dagger -8.6 -10.0 90 26 8 24.1 100.75   -13 Snow
20:00 Legend Double Dagger -7.5 -9.3 87 30 6 24.1 100.78   -11 Snow
21:00 Legend Double Dagger -7.3 -9.0 88 31 7 24.1 100.79   -11 Snow
22:00 Legend Double Dagger -8.5 -8.9 97 33 8 24.1 100.79   -13 Mainly Clear
23:00 Legend Double Dagger -9.8 -10.7 93 34 19 24.1 100.81   -17 LegendNANA

Notes on Data Quality.

Legend

  • E = Estimated
  • M = Missing
  • NA = Not Available
  • ‡ = Partner data that is not subject to review by the National Climate Archives
Date modified: